KLM702 SAEZ-EHAM

Flight info

Callsign KLM702
Flight time N/A
Altitude 31000
Route DORVO1E DORVO UN857 OGRUN DCT NIGBI UZ121 PENSO UZ5 MEVIK/N0501F310 UZ5 SEKPO DCT KADAG UZ2 SLI DCT MAVKO/N0499F330 DCT GOGSO DCT GARPO/M083F330 DCT TEGTO DCT SORAD/M083F350 DCT 35N022W 40N019W DCT GONAN/M083F370 DCT TAMEL DCT EVBAK DCT GAPLI/N0474F370 DCT GAJIT DCT ENHAQ DCT REDFA
Aircraft B772/H-SDE2E3FGHIJ5LORVWXY/LB1D1

Departure

Time 2026-05-07 18:29
Airport Ezeiza International Airport - Ministro Pistarini (SAEZ)

Arrival

Time N/A
Airport Amsterdam Airport Schiphol (EHAM)
Time Latitude Longitude Altitude Speed Heading
2026-05-07 17:33 -34.81554 -58.53927 79 ft 0 kts 322°
2026-05-07 18:17 -34.81557 -58.53924 85 ft 3 kts 322°
2026-05-07 18:17 -34.81577 -58.53905 85 ft 4 kts 322°
2026-05-07 18:18 -34.81597 -58.53886 85 ft 4 kts 322°
2026-05-07 18:18 -34.81617 -58.53867 85 ft 4 kts 322°
2026-05-07 18:18 -34.81633 -58.53851 85 ft 4 kts 314°
2026-05-07 18:18 -34.81647 -58.53827 85 ft 4 kts 286°
2026-05-07 18:19 -34.81649 -58.53799 84 ft 4 kts 249°
2026-05-07 18:19 -34.81636 -58.53776 82 ft 4 kts 223°
2026-05-07 18:19 -34.81618 -58.53754 85 ft 4 kts 223°
2026-05-07 18:19 -34.81599 -58.53733 85 ft 3 kts 223°
2026-05-07 18:20 -34.81597 -58.53731 85 ft 1 kts 223°
2026-05-07 18:22 -34.81633 -58.53760 85 ft 11 kts 201°
2026-05-07 18:23 -34.81711 -58.53740 85 ft 11 kts 158°
2026-05-07 18:23 -34.81777 -58.53703 84 ft 11 kts 154°
2026-05-07 18:23 -34.81853 -58.53657 83 ft 13 kts 151°
2026-05-07 18:23 -34.81916 -58.53563 79 ft 15 kts 108°
2026-05-07 18:24 -34.81941 -58.53446 83 ft 13 kts 103°
2026-05-07 18:24 -34.81960 -58.53350 80 ft 11 kts 104°
2026-05-07 18:24 -34.81983 -58.53233 84 ft 15 kts 104°
2026-05-07 18:24 -34.82010 -58.53102 84 ft 18 kts 104°
2026-05-07 18:25 -34.82038 -58.52962 88 ft 18 kts 104°
2026-05-07 18:25 -34.82077 -58.52768 84 ft 27 kts 103°
2026-05-07 18:25 -34.82117 -58.52563 80 ft 24 kts 104°
2026-05-07 18:25 -34.82154 -58.52381 84 ft 21 kts 103°
2026-05-07 18:26 -34.82186 -58.52221 83 ft 18 kts 103°
2026-05-07 18:26 -34.82216 -58.52067 81 ft 21 kts 103°
2026-05-07 18:26 -34.82250 -58.51900 80 ft 19 kts 103°
2026-05-07 18:26 -34.82291 -58.51796 85 ft 10 kts 152°
2026-05-07 18:27 -34.82370 -58.51799 85 ft 14 kts 191°
2026-05-07 18:27 -34.82463 -58.51826 87 ft 11 kts 193°
2026-05-07 18:27 -34.82519 -58.51864 91 ft 11 kts 245°
2026-05-07 18:27 -34.82520 -58.51908 88 ft 6 kts 278°
2026-05-07 18:28 -34.82504 -58.52003 85 ft 18 kts 282°
2026-05-07 18:28 -34.82433 -58.52405 86 ft 84 kts 282°
2026-05-07 18:28 -34.82261 -58.53369 88 ft 147 kts 282°
2026-05-07 18:28 -34.81998 -58.54792 229 ft 188 kts 282°
2026-05-07 18:29 -34.81717 -58.56343 979 ft 191 kts 280°
2026-05-07 18:29 -34.81443 -58.57924 1885 ft 188 kts 278°
2026-05-07 18:29 -34.81166 -58.59488 2446 ft 193 kts 275°
2026-05-07 18:29 -34.81265 -58.61147 2580 ft 203 kts 244°
2026-05-07 18:30 -34.82143 -58.62530 2835 ft 214 kts 227°
2026-05-07 18:30 -34.83206 -58.63907 3082 ft 228 kts 229°
2026-05-07 18:30 -34.84287 -58.65376 3516 ft 238 kts 230°
2026-05-07 18:30 -34.85405 -58.66909 4043 ft 244 kts 231°
2026-05-07 18:31 -34.86526 -58.68431 4655 ft 247 kts 231°
2026-05-07 18:31 -34.87782 -58.69915 5053 ft 260 kts 216°
2026-05-07 18:31 -34.89524 -58.70676 5513 ft 275 kts 189°
2026-05-07 18:31 -34.91455 -58.70463 5963 ft 289 kts 163°
2026-05-07 18:32 -34.93236 -58.69228 6324 ft 300 kts 144°
2026-05-07 18:32 -34.94775 -58.67481 6837 ft 304 kts 132°
2026-05-07 18:32 -34.96064 -58.65424 7299 ft 309 kts 123°
2026-05-07 18:32 -34.97142 -58.63147 7785 ft 310 kts 116°
2026-05-07 18:33 -34.98035 -58.60763 8347 ft 309 kts 109°
2026-05-07 18:33 -34.98694 -58.58259 8816 ft 310 kts 100°
2026-05-07 18:33 -34.99071 -58.55677 9352 ft 308 kts 91°
2026-05-07 18:33 -34.99176 -58.53067 9773 ft 308 kts 85°
2026-05-07 18:34 -34.99121 -58.50404 9904 ft 323 kts 83°
2026-05-07 18:34 -34.99036 -58.47621 10143 ft 333 kts 84°
2026-05-07 18:34 -34.98946 -58.44731 10283 ft 348 kts 85°
2026-05-07 18:34 -34.98888 -58.42754 10439 ft 356 kts 84°
2026-05-07 18:35 -34.98772 -58.38667 10695 ft 374 kts 85°
2026-05-07 18:35 -34.98690 -58.35439 10941 ft 386 kts 85°
2026-05-07 18:35 -34.98614 -58.32105 11175 ft 399 kts 85°
2026-05-07 18:35 -34.98543 -58.28682 11595 ft 406 kts 86°
2026-05-07 18:36 -34.98497 -58.26407 12050 ft 405 kts 86°
2026-05-07 18:36 -34.98449 -58.24210 12305 ft 411 kts 86°
2026-05-07 18:36 -34.98366 -58.20704 12825 ft 414 kts 86°
2026-05-07 18:36 -34.98279 -58.17190 13411 ft 415 kts 86°
2026-05-07 18:37 -34.98194 -58.13664 13968 ft 416 kts 86°
2026-05-07 18:37 -34.98110 -58.10104 14361 ft 424 kts 85°
2026-05-07 18:37 -34.98018 -58.06478 14724 ft 431 kts 85°
2026-05-07 18:37 -34.97920 -58.02821 15326 ft 431 kts 84°
2026-05-07 18:38 -34.97819 -57.99168 15903 ft 432 kts 84°
2026-05-07 18:38 -34.97719 -57.95515 16228 ft 440 kts 84°
2026-05-07 18:38 -34.97544 -57.91787 16395 ft 438 kts 75°
2026-05-07 18:38 -34.96548 -57.88312 16528 ft 430 kts 52°
2026-05-07 18:39 -34.94790 -57.85485 17020 ft 413 kts 41°
2026-05-07 18:39 -34.92902 -57.82815 17364 ft 418 kts 41°
2026-05-07 18:39 -34.91000 -57.80102 17680 ft 423 kts 41°
2026-05-07 18:39 -34.89094 -57.77344 18070 ft 426 kts 42°
2026-05-07 18:40 -34.87197 -57.74569 18488 ft 427 kts 42°
2026-05-07 18:40 -34.85304 -57.71787 18956 ft 426 kts 41°
2026-05-07 18:40 -34.83440 -57.69044 19420 ft 426 kts 41°
2026-05-07 18:40 -34.81525 -57.66231 19822 ft 426 kts 41°
2026-05-07 18:41 -34.79651 -57.63483 20173 ft 428 kts 40°
2026-05-07 18:41 -34.77745 -57.60691 20511 ft 429 kts 40°
2026-05-07 18:41 -34.75835 -57.57894 20876 ft 430 kts 40°
2026-05-07 18:41 -34.73924 -57.55098 21249 ft 430 kts 40°
2026-05-07 18:42 -34.72003 -57.52292 21643 ft 431 kts 40°
2026-05-07 18:42 -34.70085 -57.49496 22021 ft 431 kts 39°
2026-05-07 18:42 -34.68160 -57.46697 22385 ft 432 kts 39°
2026-05-07 18:42 -34.66231 -57.43897 22738 ft 432 kts 39°
2026-05-07 18:43 -34.64299 -57.41094 23083 ft 433 kts 39°
2026-05-07 18:43 -34.62386 -57.38318 23383 ft 434 kts 39°
2026-05-07 18:43 -34.60451 -57.35512 23712 ft 432 kts 39°
2026-05-07 18:43 -34.58527 -57.32719 24053 ft 431 kts 39°
2026-05-07 18:44 -34.56598 -57.29925 24330 ft 432 kts 39°
2026-05-07 18:44 -34.54661 -57.27124 24576 ft 433 kts 39°
2026-05-07 18:44 -34.52722 -57.24324 24845 ft 434 kts 39°
2026-05-07 18:44 -34.50774 -57.21510 25100 ft 435 kts 39°
2026-05-07 18:45 -34.48824 -57.18695 25377 ft 436 kts 39°
2026-05-07 18:45 -34.46872 -57.15879 25659 ft 436 kts 39°
2026-05-07 18:45 -34.44917 -57.13061 25936 ft 437 kts 39°
2026-05-07 18:45 -34.42983 -57.10275 26150 ft 438 kts 39°
2026-05-07 18:46 -34.41017 -57.07447 26368 ft 440 kts 40°
2026-05-07 18:46 -34.39044 -57.04612 26599 ft 441 kts 40°
2026-05-07 18:46 -34.37066 -57.01767 26862 ft 441 kts 40°
2026-05-07 18:46 -34.35088 -56.98926 27119 ft 441 kts 40°
2026-05-07 18:47 -34.33109 -56.96085 27367 ft 442 kts 40°
2026-05-07 18:47 -34.31120 -56.93234 27600 ft 443 kts 40°
2026-05-07 18:47 -34.29131 -56.90383 27828 ft 443 kts 40°
2026-05-07 18:47 -34.27139 -56.87532 28044 ft 444 kts 40°
2026-05-07 18:48 -34.25137 -56.84672 28215 ft 445 kts 40°
2026-05-07 18:48 -34.21126 -56.78962 28371 ft 451 kts 40°
2026-05-07 18:48 -34.19096 -56.76073 28585 ft 451 kts 40°
2026-05-07 18:49 -34.17066 -56.73183 28794 ft 451 kts 40°
2026-05-07 18:49 -34.15038 -56.70296 29008 ft 451 kts 40°
2026-05-07 18:49 -34.13010 -56.67413 29181 ft 451 kts 40°
2026-05-07 18:49 -34.10974 -56.64523 29326 ft 452 kts 40°
2026-05-07 18:50 -34.08937 -56.61633 29486 ft 452 kts 40°
2026-05-07 18:50 -34.06899 -56.58742 29736 ft 451 kts 40°
2026-05-07 18:50 -34.04869 -56.55866 29837 ft 452 kts 41°
2026-05-07 18:51 -34.00753 -56.50050 29879 ft 459 kts 41°
2026-05-07 18:51 -33.98681 -56.47122 30043 ft 458 kts 41°
2026-05-07 18:51 -33.96620 -56.44207 30291 ft 456 kts 41°
2026-05-07 18:51 -33.94567 -56.41305 30508 ft 454 kts 41°
2026-05-07 18:52 -33.92511 -56.38407 30529 ft 456 kts 41°
2026-05-07 18:52 -33.88385 -56.32602 30591 ft 457 kts 41°
2026-05-07 18:53 -33.84222 -56.26830 30602 ft 460 kts 41°
2026-05-07 18:53 -33.80003 -56.21003 30591 ft 464 kts 41°
2026-05-07 18:54 -33.75761 -56.15098 30582 ft 467 kts 41°
2026-05-07 18:54 -33.71515 -56.09151 30585 ft 470 kts 41°
2026-05-07 18:55 -33.67253 -56.03184 30573 ft 471 kts 41°
2026-05-07 18:55 -33.63001 -55.97250 30564 ft 472 kts 41°
2026-05-07 18:56 -33.58723 -55.91290 30865 ft 469 kts 41°
2026-05-07 18:56 -33.56601 -55.88334 31100 ft 465 kts 41°
2026-05-07 18:56 -33.54495 -55.85404 31355 ft 462 kts 41°
2026-05-07 18:56 -33.52400 -55.82494 31591 ft 460 kts 41°
2026-05-07 18:57 -33.50313 -55.79600 31741 ft 458 kts 41°
2026-05-07 18:57 -33.46125 -55.73808 31722 ft 462 kts 43°
2026-05-07 18:58 -33.41898 -55.67969 31766 ft 466 kts 43°
2026-05-07 18:58 -33.39778 -55.65038 31879 ft 465 kts 43°
2026-05-07 18:58 -33.37662 -55.62115 32028 ft 464 kts 43°
2026-05-07 18:58 -33.35552 -55.59202 32176 ft 463 kts 43°
2026-05-07 18:59 -33.33467 -55.56327 32294 ft 463 kts 43°
2026-05-07 18:59 -33.31356 -55.53418 32402 ft 462 kts 43°
2026-05-07 18:59 -33.29248 -55.50517 32428 ft 463 kts 42°
2026-05-07 19:00 -33.25019 -55.44708 32525 ft 463 kts 42°
2026-05-07 19:00 -33.20772 -55.38883 32529 ft 466 kts 42°
2026-05-07 19:01 -33.16501 -55.33033 32523 ft 467 kts 42°
2026-05-07 19:01 -33.12244 -55.27209 32523 ft 469 kts 42°
2026-05-07 19:02 -33.07949 -55.21344 32490 ft 470 kts 43°
2026-05-07 19:02 -33.03630 -55.15457 32499 ft 473 kts 43°
2026-05-07 19:03 -32.99280 -55.09537 32508 ft 476 kts 43°
2026-05-07 19:03 -32.94903 -55.03590 32502 ft 479 kts 43°
2026-05-07 19:04 -32.90494 -54.97607 32441 ft 483 kts 42°
2026-05-07 19:04 -32.86028 -54.91560 32488 ft 489 kts 42°
2026-05-07 19:05 -32.81505 -54.85447 32493 ft 495 kts 42°
2026-05-07 19:05 -32.76958 -54.79309 32491 ft 500 kts 42°
2026-05-07 19:06 -32.72342 -54.73085 32486 ft 504 kts 41°
2026-05-07 19:06 -32.65330 -54.63655 32493 ft 510 kts 41°
2026-05-07 19:07 -32.60602 -54.57310 32492 ft 514 kts 41°
2026-05-07 19:07 -32.55850 -54.50943 32491 ft 517 kts 41°
2026-05-07 19:08 -32.51103 -54.44592 32491 ft 518 kts 41°
2026-05-07 19:08 -32.46316 -54.38199 32491 ft 519 kts 41°
2026-05-07 19:09 -32.41527 -54.31815 32497 ft 518 kts 41°
2026-05-07 19:09 -32.36730 -54.25430 32500 ft 518 kts 41°
2026-05-07 19:10 -32.31989 -54.19108 32616 ft 516 kts 41°
2026-05-07 19:10 -32.27275 -54.12719 32605 ft 514 kts 42°
2026-05-07 19:11 -32.22577 -54.06349 32574 ft 513 kts 41°
2026-05-07 19:11 -32.17882 -54.00012 32553 ft 512 kts 41°
2026-05-07 19:12 -32.13195 -53.93701 32525 ft 511 kts 42°
2026-05-07 19:12 -32.08527 -53.87451 32515 ft 509 kts 40°
2026-05-07 19:13 -32.03311 -53.81940 32524 ft 498 kts 28°
2026-05-07 19:13 -31.97546 -53.77469 32517 ft 495 kts 26°
2026-05-07 19:14 -31.91763 -53.73030 32505 ft 496 kts 27°
2026-05-07 19:14 -31.85977 -53.68545 32531 ft 499 kts 27°
2026-05-07 19:15 -31.80168 -53.64029 32546 ft 501 kts 27°
2026-05-07 19:15 -31.74373 -53.59526 32542 ft 503 kts 27°
2026-05-07 19:16 -31.68521 -53.54988 32539 ft 504 kts 27°
2026-05-07 19:16 -31.62654 -53.50446 32534 ft 505 kts 27°
2026-05-07 19:17 -31.56767 -53.45897 32550 ft 506 kts 27°
2026-05-07 19:17 -31.50876 -53.41352 32557 ft 507 kts 27°
2026-05-07 19:18 -31.44978 -53.36807 32559 ft 507 kts 27°
2026-05-07 19:18 -31.39073 -53.32264 32558 ft 507 kts 27°
2026-05-07 19:19 -31.33209 -53.27760 32565 ft 507 kts 27°
2026-05-07 19:19 -31.27310 -53.23238 32559 ft 506 kts 27°
2026-05-07 19:20 -31.21413 -53.18722 32572 ft 507 kts 27°
2026-05-07 19:20 -31.15497 -53.14199 32585 ft 508 kts 27°
2026-05-07 19:21 -31.09573 -53.09678 32590 ft 509 kts 27°
2026-05-07 19:21 -31.03632 -53.05150 32580 ft 510 kts 27°
2026-05-07 19:22 -30.97688 -53.00626 32576 ft 510 kts 27°
2026-05-07 19:22 -30.92739 -52.96863 32584 ft 511 kts 28°
2026-05-07 19:23 -30.85804 -52.91599 32610 ft 511 kts 28°
2026-05-07 19:23 -30.80844 -52.87841 32600 ft 512 kts 28°
2026-05-07 19:24 -30.74882 -52.83330 32617 ft 512 kts 28°
2026-05-07 19:24 -30.68909 -52.78818 32622 ft 512 kts 27°
2026-05-07 19:25 -30.62935 -52.74309 32619 ft 512 kts 27°
2026-05-07 19:25 -30.56960 -52.69809 32625 ft 511 kts 27°
2026-05-07 19:26 -30.50994 -52.65322 32634 ft 511 kts 27°
2026-05-07 19:26 -30.45026 -52.60838 32634 ft 510 kts 27°
2026-05-07 19:27 -30.39101 -52.56395 32630 ft 510 kts 27°
2026-05-07 19:27 -30.33145 -52.51935 32628 ft 510 kts 27°
2026-05-07 19:28 -30.27194 -52.47484 32644 ft 509 kts 27°
2026-05-07 19:28 -30.21249 -52.43045 32646 ft 508 kts 27°
2026-05-07 19:29 -30.15313 -52.38621 32631 ft 507 kts 26°
2026-05-07 19:29 -30.09381 -52.34204 32641 ft 507 kts 26°
2026-05-07 19:30 -30.03451 -52.29796 32648 ft 506 kts 26°
2026-05-07 19:30 -29.97530 -52.25400 32656 ft 506 kts 26°
2026-05-07 19:31 -29.91648 -52.21040 32653 ft 505 kts 26°
2026-05-07 19:31 -29.85733 -52.16663 32662 ft 504 kts 26°
2026-05-07 19:32 -29.79824 -52.12295 32660 ft 504 kts 25°
2026-05-07 19:32 -29.73923 -52.07939 32668 ft 504 kts 25°
2026-05-07 19:33 -29.68023 -52.03590 32643 ft 503 kts 25°
2026-05-07 19:33 -29.62176 -51.99286 32667 ft 501 kts 25°
2026-05-07 19:34 -29.56295 -51.94962 32675 ft 500 kts 25°
2026-05-07 19:34 -29.50440 -51.90665 32686 ft 499 kts 25°
2026-05-07 19:35 -29.44581 -51.86371 32682 ft 499 kts 25°
2026-05-07 19:35 -29.38756 -51.82108 32699 ft 500 kts 25°
2026-05-07 19:36 -29.32891 -51.77820 32676 ft 500 kts 26°
2026-05-07 19:36 -29.27028 -51.73530 32710 ft 500 kts 26°
2026-05-07 19:37 -29.21198 -51.69140 32709 ft 504 kts 26°
2026-05-07 19:37 -29.15343 -51.64679 32733 ft 506 kts 26°
2026-05-07 19:38 -29.09458 -51.60222 32739 ft 507 kts 26°
2026-05-07 19:38 -29.03596 -51.55821 32730 ft 508 kts 26°
2026-05-07 19:39 -28.97665 -51.51366 32758 ft 511 kts 26°
2026-05-07 19:39 -28.91701 -51.46886 32744 ft 513 kts 26°
2026-05-07 19:40 -28.85737 -51.42412 32766 ft 513 kts 26°
2026-05-07 19:40 -28.79778 -51.37951 32760 ft 511 kts 26°
2026-05-07 19:41 -28.73836 -51.33510 32767 ft 509 kts 26°
2026-05-07 19:41 -28.67958 -51.29123 32792 ft 508 kts 26°
2026-05-07 19:42 -28.62037 -51.24712 32772 ft 508 kts 26°
2026-05-07 19:42 -28.56119 -51.20306 32781 ft 507 kts 26°
2026-05-07 19:43 -28.50211 -51.15915 32794 ft 507 kts 26°
2026-05-07 19:43 -28.44302 -51.11528 32795 ft 507 kts 26°
2026-05-07 19:44 -28.38393 -51.07145 32805 ft 507 kts 26°
2026-05-07 19:44 -28.32524 -51.02800 32793 ft 507 kts 26°
2026-05-07 19:45 -28.26608 -50.98427 32811 ft 507 kts 27°
2026-05-07 19:45 -28.20684 -50.94051 32816 ft 507 kts 27°
2026-05-07 19:46 -28.14777 -50.89693 32824 ft 506 kts 27°
2026-05-07 19:46 -28.08866 -50.85344 32814 ft 507 kts 26°
2026-05-07 19:47 -28.02658 -50.81734 32841 ft 498 kts 15°
2026-05-07 19:47 -27.96113 -50.79452 32836 ft 494 kts 10°
2026-05-07 19:48 -27.89454 -50.77429 32848 ft 496 kts 10°
2026-05-07 19:48 -27.82775 -50.75359 32847 ft 498 kts 11°
2026-05-07 19:49 -27.76089 -50.73265 32823 ft 499 kts 11°
2026-05-07 19:49 -27.69381 -50.71164 32829 ft 499 kts 10°
2026-05-07 19:50 -27.62691 -50.69071 32853 ft 499 kts 10°
2026-05-07 19:50 -27.55990 -50.66983 32853 ft 499 kts 10°
2026-05-07 19:51 -27.49340 -50.64910 32852 ft 499 kts 10°
2026-05-07 19:51 -27.42639 -50.62829 32853 ft 500 kts 10°
2026-05-07 19:52 -27.35909 -50.60783 32867 ft 502 kts 10°
2026-05-07 19:52 -27.29134 -50.58737 32867 ft 504 kts 10°
2026-05-07 19:53 -27.22338 -50.56680 32849 ft 506 kts
2026-05-07 19:53 -27.15530 -50.54618 32868 ft 507 kts
2026-05-07 19:54 -27.08693 -50.52549 32866 ft 508 kts
2026-05-07 19:54 -27.01897 -50.50494 32884 ft 509 kts
2026-05-07 19:55 -26.95059 -50.48428 32870 ft 509 kts
2026-05-07 19:55 -26.88215 -50.46365 32878 ft 509 kts
2026-05-07 19:56 -26.81381 -50.44308 32879 ft 508 kts
2026-05-07 19:56 -26.74578 -50.42262 32885 ft 508 kts
2026-05-07 19:57 -26.67746 -50.40211 32869 ft 508 kts
2026-05-07 19:57 -26.60901 -50.38159 32883 ft 509 kts
2026-05-07 19:58 -26.54052 -50.36107 32891 ft 510 kts
2026-05-07 19:58 -26.47189 -50.34053 32886 ft 511 kts
2026-05-07 19:59 -26.40359 -50.32012 32887 ft 512 kts
2026-05-07 19:59 -26.33474 -50.29957 32888 ft 513 kts
2026-05-07 20:00 -26.26564 -50.27898 32891 ft 513 kts
2026-05-07 20:00 -26.19656 -50.25841 32873 ft 514 kts
2026-05-07 20:01 -26.12777 -50.23795 32885 ft 514 kts
2026-05-07 20:01 -26.05860 -50.21740 32896 ft 515 kts
2026-05-07 20:02 -25.98924 -50.19683 32893 ft 515 kts
2026-05-07 20:02 -25.91988 -50.17627 32865 ft 515 kts
2026-05-07 20:03 -25.85095 -50.15588 32895 ft 517 kts
2026-05-07 20:03 -25.78134 -50.13532 32903 ft 518 kts
2026-05-07 20:04 -25.71163 -50.11475 32894 ft 519 kts
2026-05-07 20:04 -25.64176 -50.09414 32901 ft 520 kts
2026-05-07 20:05 -25.57182 -50.07353 32907 ft 520 kts
2026-05-07 20:05 -25.50172 -50.05291 32916 ft 521 kts
2026-05-07 20:06 -25.43157 -50.03231 32907 ft 521 kts
2026-05-07 20:06 -25.36184 -50.01184 32902 ft 521 kts
2026-05-07 20:07 -25.29161 -49.99125 32911 ft 521 kts
2026-05-07 20:07 -25.22140 -49.97069 32925 ft 521 kts
2026-05-07 20:08 -25.15134 -49.95021 32923 ft 521 kts
2026-05-07 20:08 -25.08116 -49.92974 32920 ft 521 kts
2026-05-07 20:09 -25.01138 -49.90937 32936 ft 522 kts
2026-05-07 20:10 -24.90586 -49.87864 32941 ft 522 kts
2026-05-07 20:10 -24.83540 -49.85815 32927 ft 523 kts
2026-05-07 20:11 -24.76492 -49.83768 32940 ft 523 kts
2026-05-07 20:11 -24.69491 -49.81736 32943 ft 523 kts
2026-05-07 20:12 -24.62447 -49.79695 32926 ft 523 kts
2026-05-07 20:12 -24.56589 -49.77998 32947 ft 523 kts
2026-05-07 20:13 -24.48392 -49.75629 32950 ft 524 kts
2026-05-07 20:13 -24.42483 -49.73922 32942 ft 524 kts
2026-05-07 20:14 -24.35431 -49.71888 32950 ft 524 kts
2026-05-07 20:14 -24.28368 -49.69851 32935 ft 524 kts
2026-05-07 20:15 -24.21303 -49.67818 32949 ft 525 kts
2026-05-07 20:15 -24.14279 -49.65799 32943 ft 525 kts
2026-05-07 20:16 -24.07197 -49.63764 32921 ft 526 kts
2026-05-07 20:16 -24.00120 -49.61735 32937 ft 525 kts
2026-05-07 20:17 -23.93074 -49.59716 32932 ft 526 kts
2026-05-07 20:17 -23.85992 -49.57688 32923 ft 526 kts
2026-05-07 20:18 -23.78902 -49.55661 32917 ft 527 kts
2026-05-07 20:18 -23.71806 -49.53635 32927 ft 527 kts
2026-05-07 20:19 -23.64710 -49.51611 32916 ft 527 kts 10°
2026-05-07 20:19 -23.57608 -49.49588 32928 ft 527 kts 10°
2026-05-07 20:20 -23.50507 -49.47567 32927 ft 527 kts 10°
2026-05-07 20:20 -23.43405 -49.45548 32929 ft 528 kts 10°
2026-05-07 20:21 -23.36299 -49.43529 32933 ft 528 kts 10°
2026-05-07 20:21 -23.29189 -49.41512 32936 ft 528 kts 10°
2026-05-07 20:22 -23.22076 -49.39498 32919 ft 528 kts 11°
2026-05-07 20:22 -23.15010 -49.37497 32941 ft 527 kts 10°
2026-05-07 20:23 -23.07898 -49.35486 32933 ft 528 kts 10°
2026-05-07 20:23 -23.00790 -49.33478 32927 ft 527 kts 11°
2026-05-07 20:24 -22.93684 -49.31473 32932 ft 527 kts 11°
2026-05-07 20:24 -22.86576 -49.29470 32929 ft 527 kts 11°
2026-05-07 20:25 -22.79469 -49.27470 32931 ft 527 kts 11°